User: anonymous   Login
Location: Unspecified
(0.0000°N, 0.0000°E)
Time: 22:47:59
(UTC+00:00)
Language:

APRIZESAT 8 - Orbit

View from above orbital plane
View from above orbital plane
View from above satellite
View from above satellite

Ground track
Ground track

The orbit is defined by the following mean orbital elements,

1 39425U          26145.40683681 +.00000000 +00000-0 +11788-3 0 00008
2 39425  97.8210  93.1952 0046079   2.8818 357.2655 14.87595665    03
Epoch (UTC): 25 May 2026 09:45:50
Eccentricity: 0.0046079
inclination: 97.8210°
perigee height: 573 km
apogee height: 638 km
right ascension of ascending node: 93.1952°
argument of perigee: 2.8818°
revolutions per day: 14.87595665
mean anomaly at epoch: 357.2655°

The dashed part of the orbit path shows where the satellite is in the earth's shadow,  

DLR